Lapse_Rate
3.8 4.7 6.0 6.5 6.4 6.1 6.0 5.8 5.7 5.8 6.1 5.9 5.8 5.9 5.9 5.9 5.6 5.8 5.8 5.9 6.0 6.1 6.3 6.1 6.4 6.5 6.2 6.1 6.2 6.1 6.1 6.0 5.8 6.0 6.2 6.1 6.0 6.0 5.8 6.0 6.0 6.0 5.9
3.5 4.8 6.0 6.6 6.5 6.3 6.0 5.9 5.8 5.7 5.5 5.5 5.5 5.7 5.5 5.5 5.6 5.9 5.9 6.1 6.1 6.4 6.1 6.3 6.4 6.6 6.3 6.5 6.5 6.3 6.0 5.6 5.7 6.1 6.3 6.4 6.0 5.7 6.0 5.8 5.7 6.1 6.3
4.3 5.1 5.8 6.3 6.6 6.4 6.1 5.8 5.7 5.8 5.7 5.7 5.7 5.6 5.6 5.7 5.8 6.0 6.3 6.4 6.2 6.4 6.3 6.6 6.5 6.3 6.5 6.4 6.0 5.6 5.6 5.5 5.8 5.8 5.4 5.1 5.7 5.8 5.9 6.1 6.1 6.2 6.1
4.2 4.5 5.1 5.9 6.4 6.3 6.2 6.1 6.0 6.0 5.8 5.7 6.0 5.9 5.9 6.1 6.1 6.3 6.4 6.5 6.5 6.4 6.4 6.6 6.5 6.8 6.3 6.0 5.6 5.3 5.5 5.2 5.9 6.0 4.8 4.9 5.5 6.1 6.3 6.2 5.9 6.2 6.3
4.1 4.5 5.2 6.1 6.2 6.1 6.3 6.3 6.4 6.4 6.3 6.1 6.0 5.8 6.1 6.2 6.4 6.3 6.5 6.4 6.2 6.5 6.7 6.6 6.7 6.7 5.9 5.7 5.5 5.7 5.9 5.5 5.8 6.3 5.4 5.0 5.0 5.5 6.0 5.4 6.0 6.2 6.6
4.3 5.0 5.7 6.3 6.3 6.4 6.3 6.6 6.4 6.3 6.2 6.0 6.1 6.4 6.5 6.3 6.7 6.3 6.6 6.5 6.2 6.5 6.8 6.6 6.6 5.9 5.7 6.0 6.2 6.2 6.1 5.8 5.5 5.4 5.0 4.7 4.6 4.5 5.7 6.2 7.3 7.2 7.0
4.3 4.9 6.2 6.4 6.6 6.4 6.3 6.3 6.5 6.6 6.5 6.3 6.4 6.5 6.8 6.8 6.6 6.5 6.4 6.2 6.8 6.2 6.5 6.2 5.8 5.9 6.1 6.3 6.2 5.9 5.8 5.7 5.4 4.5 4.9 4.3 4.6 5.2 6.2 6.4 7.4 7.7 7.1
4.3 4.5 4.8 4.4 5.7 6.6 6.2 6.4 6.6 6.3 6.4 6.4 6.7 6.5 6.7 6.6 6.9 6.4 6.3 6.5 6.5 6.4 6.4 6.1 6.1 5.7 5.6 5.9 5.7 5.8 6.1 6.4 5.7 4.5 4.4 3.8 4.2 5.4 6.5 4.6 6.4 6.9 6.9
4.7 4.3 4.4 4.1 4.5 5.5 6.5 6.5 6.8 6.7 6.6 6.5 6.5 6.3 6.6 6.6 6.5 6.5 6.6 6.7 6.2 6.7 6.5 6.4 6.3 5.7 5.1 5.5 5.5 6.0 6.6 6.1 4.7 3.6 4.5 3.8 4.4 5.4 7.1 6.9 7.4 7.0 6.3
4.6 4.5 4.2 4.1 4.4 4.4 5.5 6.7 6.8 6.6 6.5 6.7 6.8 6.5 6.3 6.3 6.4 6.4 6.2 6.0 6.4 6.4 6.4 6.4 6.5 5.6 5.4 5.5 5.7 6.3 5.8 5.8 4.1 3.4 3.5 4.5 5.3 6.7 7.1 7.4 7.6 6.9 7.0
4.9 4.7 4.4 4.0 4.0 4.4 5.5 7.0 7.0 6.3 6.2 7.1 6.4 5.9 4.5 4.2 4.6 5.3 5.7 5.9 6.1 6.1 6.4 6.2 6.1 5.5 5.7 5.6 5.3 5.8 6.1 3.9 3.4 3.4 3.3 4.0 4.6 5.1 7.3 7.4 7.0 6.8 6.8
4.4 4.7 4.7 4.2 4.2 4.9 5.4 5.1 6.1 6.1 4.5 4.7 4.6 4.3 4.2 4.2 4.3 4.5 4.8 5.4 5.9 5.6 5.5 5.3 4.9 4.4 4.7 3.7 3.9 4.2 3.7 3.0 3.0 2.8 2.5 3.9 4.6 5.3 6.6 7.2 6.8 7.0 6.7
4.5 4.9 4.7 4.4 4.5 4.5 4.1 3.9 3.8 4.1 4.4 4.5 4.0 3.9 4.2 3.6 3.6 3.7 3.3 3.6 3.6 4.0 3.9 4.0 3.8 3.3 3.6 3.3 3.9 3.2 3.2 2.4 2.3 2.1 2.6 3.1 4.1 5.3 6.3 6.9 6.9 6.7 6.6
4.6 5.8 5.5 5.1 4.6 4.3 4.1 4.3 4.4 3.8 3.8 3.5 4.0 4.1 3.7 2.6 2.7 2.2 2.2 2.3 2.4 2.5 2.9 3.1 2.7 2.6 2.4 2.7 2.5 2.2 2.5 2.0 1.7 2.2 2.0 3.2 4.0 5.4 6.0 6.5 6.4 6.1 6.0
5.0 6.1 5.8 5.3 4.4 4.0 3.8 4.3 4.5 3.9 3.8 3.6 4.3 4.2 3.5 3.0 2.8 2.3 1.9 1.9 1.9 2.3 2.4 2.6 2.1 2.3 2.2 2.1 2.3 2.0 2.7 2.2 2.1 2.3 2.5 3.3 4.1 5.0 5.3 5.3 5.7 5.6 5.6
4.3 5.7 5.3 5.0 4.4 4.4 4.5 4.5 4.1 3.8 4.3 4.2 4.3 4.1 4.0 3.0 2.5 2.1 1.7 1.8 1.9 2.0 2.1 1.9 2.1 2.0 2.1 1.4 2.0 2.3 2.0 1.7 2.4 2.8 2.4 3.2 3.5 4.2 4.6 4.7 5.2 5.4 5.7
3.2 4.3 5.0 4.7 4.7 4.2 4.2 4.4 4.2 4.4 4.8 4.3 4.5 4.5 3.8 2.8 2.2 1.8 1.5 1.4 1.9 2.3 2.4 2.0 2.1 2.4 1.6 1.9 2.0 2.3 2.0 2.2 2.2 2.6 2.7 2.5 2.6 3.5 4.6 4.9 5.3 5.2 5.7
2.6 2.7 3.4 5.7 4.9 3.9 3.6 3.6 4.2 4.4 4.0 4.0 4.1 3.9 3.9 3.5 3.0 2.2 1.6 1.9 2.8 2.6 2.4 2.3 2.1 1.9 1.8 1.8 1.5 1.5 2.0 2.3 2.3 2.4 2.3 2.4 2.3 4.4 4.8 4.8 5.2 5.2 5.9
2.3 2.4 2.6 3.4 4.1 4.3 3.6 3.8 3.2 3.8 3.4 3.5 3.3 3.3 3.7 3.7 3.3 2.5 2.4 2.7 2.9 3.0 2.8 2.7 2.8 2.6 2.9 2.7 2.6 2.7 1.7 1.7 2.4 2.6 2.8 2.8 2.7 3.8 4.1 4.6 5.1 5.4 6.1
2.9 2.4 2.4 2.3 3.0 3.4 3.2 2.9 2.4 2.8 3.0 3.1 3.0 3.2 3.5 3.9 3.3 2.7 3.0 2.6 3.1 3.2 3.5 3.2 3.6 3.5 3.3 3.1 4.1 3.5 1.8 1.4 1.3 1.8 2.6 3.5 3.0 3.5 3.6 4.0 4.3 5.0 5.3
3.6 3.1 2.8 2.5 2.6 2.6 2.7 2.8 2.6 3.2 2.8 2.9 3.1 4.1 3.7 3.8 3.8 3.1 2.9 3.1 3.4 3.6 3.5 3.4 3.5 3.6 3.7 2.5 3.1 3.5 2.8 2.5 2.1 2.3 2.3 2.7 3.5 3.5 3.4 3.7 3.2 3.4 4.3
3.5 3.1 2.7 2.6 2.5 2.3 2.3 2.4 2.9 2.9 2.7 3.0 3.1 3.4 3.8 3.9 4.0 3.5 3.5 3.9 3.7 3.7 3.5 3.5 3.4 3.8 3.2 2.7 3.8 2.4 2.9 2.9 3.8 3.0 2.9 3.5 3.7 3.6 3.8 3.7 3.5 3.1 3.4
3.4 3.0 3.1 2.3 2.5 2.3 2.5 2.6 2.7 2.5 2.5 3.0 3.0 3.1 3.3 4.0 4.3 3.8 4.0 3.7 3.7 3.4 3.8 3.5 3.7 4.1 3.8 3.0 2.7 3.3 4.1 4.5 2.8 2.3 3.5 3.1 3.3 3.0 3.2 3.6 3.8 3.4 3.4
3.5 3.7 3.0 2.3 2.1 2.4 2.4 3.0 3.4 3.5 3.2 3.0 3.1 2.6 3.1 4.1 4.5 4.6 4.4 4.3 4.0 3.2 3.6 3.6 4.4 3.9 3.5 4.0 3.0 2.6 2.3 2.8 3.9 3.9 2.9 2.8 2.9 3.8 3.1 3.2 3.7 3.2 3.5
3.6 3.7 3.4 2.6 1.8 2.4 2.4 3.0 3.0 3.0 2.7 2.5 2.5 2.9 3.0 3.4 4.1 4.4 4.4 4.6 4.2 3.9 3.6 3.6 4.3 4.1 3.5 3.4 4.2 4.0 3.2 2.5 2.3 3.5 5.3 4.3 2.9 3.0 2.2 3.1 2.7 2.5 3.2
3.2 2.7 2.9 2.1 2.0 2.0 2.3 2.4 2.8 3.1 2.8 2.5 2.8 2.9 2.9 2.7 3.3 3.7 4.1 4.1 4.3 3.9 3.9 3.6 3.7 4.0 4.1 3.6 3.5 3.7 3.7 4.0 4.7 3.9 4.2 3.9 3.4 3.0 2.4 2.3 2.1 2.8 3.0
Wind_Speed
3 6 12 13 12 13 12 12 13 14 15 16 16 15 14 13 13 13 14 13 10 10 9 10 11 10 10 9 8 8 7 8 8 9 9 9 9 11 10 10 7 7 10
6 6 11 12 12 13 13 12 12 12 13 13 13 13 13 12 11 12 13 12 12 10 11 11 12 11 12 11 10 9 8 7 7 8 6 5 5 7 8 9 7 7 8
6 8 10 12 12 13 12 12 11 12 12 12 11 12 11 11 11 11 12 12 12 11 11 10 11 11 12 10 9 8 8 7 5 6 8 4 5 5 5 5 8 7 8
7 9 9 10 12 12 12 11 11 11 12 12 11 10 11 10 12 12 12 13 12 11 11 10 12 11 9 8 8 6 5 7 3 4 2 1 1 4 4 3 7 7 6
6 9 10 11 12 14 12 11 11 12 12 10 10 10 9 11 11 11 11 12 11 12 11 12 11 9 8 7 6 5 3 4 2 1 1 2 3 1 0 1 1 5 6
4 7 8 10 11 13 14 13 11 11 10 10 9 10 10 11 12 12 13 11 11 12 12 11 9 7 6 4 3 1 3 3 3 4 9 7 5 2 3 1 5 1 3
4 4 6 5 10 11 12 12 12 11 10 10 8 10 10 11 11 12 12 11 10 12 10 9 6 4 5 3 4 5 7 7 6 3 10 8 9 7 1 7 5 1 3
5 6 11 6 11 9 10 11 11 11 9 9 8 8 10 10 12 12 11 11 10 9 6 6 5 4 4 3 3 5 5 6 2 4 5 9 13 11 7 6 11 2 4
7 7 10 7 4 5 9 11 11 12 10 9 11 9 10 11 10 10 9 9 8 7 4 3 3 3 3 3 5 5 7 5 4 7 4 3 9 11 11 9 8 6 5
4 5 6 10 13 10 3 10 11 7 8 9 10 9 10 9 10 9 7 7 7 4 1 2 3 4 5 6 8 6 5 4 2 1 3 4 1 4 3 6 4 11 9
4 4 5 5 5 6 7 10 16 10 6 10 9 8 9 8 8 5 3 5 5 2 2 4 5 7 7 9 7 6 5 2 3 2 3 2 3 5 8 3 2 5 7
3 3 4 5 4 4 8 7 10 12 8 7 8 8 7 6 6 4 1 0 2 2 4 5 6 8 7 9 7 9 3 5 5 3 3 3 0 6 7 2 1 6 6
3 3 4 4 4 4 6 7 7 7 7 5 6 6 5 3 3 1 1 1 3 3 2 2 5 10 11 9 9 10 6 4 7 5 2 2 2 4 1 3 2 3 5
5 4 5 5 5 4 5 5 6 5 5 3 2 4 3 2 2 2 2 2 2 1 1 1 4 11 12 12 12 9 8 4 7 5 3 4 4 7 4 4 2 2 6
6 6 6 4 4 4 4 5 4 2 2 1 2 1 1 3 2 1 0 2 3 2 1 1 5 6 6 7 10 9 9 3 3 4 3 4 1 4 2 5 2 3 6
6 6 6 5 5 5 3 5 3 2 2 4 2 1 4 4 3 3 2 2 3 2 3 4 4 3 3 3 5 5 6 2 1 1 0 3 5 3 1 4 1 5 5
5 4 5 6 6 5 4 5 4 3 2 3 3 3 2 3 2 2 0 1 2 2 5 5 3 2 3 4 3 5 4 6 2 1 3 6 3 4 3 3 4 5 5
6 8 6 5 5 5 5 3 3 3 4 4 4 5 2 2 2 0 2 2 3 4 4 1 2 2 2 3 3 3 2 5 5 4 7 5 3 5 5 6 6 4 5
7 7 7 6 6 4 4 3 3 3 3 4 6 8 5 2 3 3 3 2 2 2 3 2 1 1 0 2 3 2 1 2 1 2 5 5 2 4 6 6 6 4 5
6 6 6 6 6 5 2 1 0 1 1 4 6 7 6 4 5 5 3 3 1 0 1 2 2 1 0 1 3 3 3 2 1 2 4 3 3 5 7 5 3 4 5
7 7 7 7 6 4 2 2 1 2 2 2 4 4 4 5 7 4 3 2 2 1 1 2 1 2 1 1 1 2 2 2 2 2 3 1 2 3 3 5 3 4 3
10 10 8 7 6 5 3 2 2 2 2 1 1 3 7 8 8 6 3 2 1 1 2 3 2 2 1 2 2 0 3 4 1 3 2 3 2 3 3 5 4 5 3
11 11 11 10 8 5 5 2 2 2 2 1 1 1 5 10 9 8 7 4 2 0 1 1 1 1 1 2 1 2 1 1 2 2 2 1 1 2 1 4 3 3 3
13 10 10 9 9 7 8 5 5 4 3 3 3 2 3 6 5 6 6 5 3 1 3 1 1 0 1 1 1 2 2 2 1 3 2 1 1 0 2 2 3 3 4
11 11 10 9 8 8 8 7 5 4 3 2 2 3 3 3 4 4 6 5 3 2 2 3 2 2 1 1 1 1 2 1 1 1 2 2 1 2 1 0 2 3 4
7 8 9 9 9 8 9 10 8 7 6 4 3 3 3 2 2 5 8 6 5 4 3 3 3 1 1 1 1 1 1 1 1 1 0 1 1 2 1 1 2 3 3
Wind_Direction
206 186 166 157 158 148 141 133 128 125 123 120 122 128 131 134 130 124 119 117 122 118 117 119 129 107 102 101 105 97 94 104 99 87 84 88 95 103 96 93 103 126 138
136 171 165 157 159 153 146 137 131 127 123 123 127 131 131 133 130 121 113 122 123 125 115 112 114 113 98 88 95 98 95 83 75 74 68 85 79 90 98 105 103 122 144
134 151 162 162 158 157 150 141 138 132 130 131 135 135 129 128 125 123 122 122 119 117 113 112 101 93 97 105 100 94 91 86 74 69 46 51 101 111 120 126 135 130 139
131 147 162 168 159 156 157 153 148 143 142 142 146 137 133 126 123 127 132 130 121 123 120 113 107 105 102 100 94 100 106 98 83 88 90 139 68 136 109 116 142 149 150
126 152 161 166 166 159 160 156 157 154 148 139 143 139 135 127 126 131 133 126 127 108 104 98 96 95 103 103 114 115 122 129 140 96 268 224 70 320 289 8 211 146 151
131 157 173 170 172 164 164 164 153 137 135 140 148 142 135 137 140 134 128 125 117 110 104 100 96 97 101 88 74 123 228 237 217 236 260 250 208 215 301 327 296 175 148
126 142 157 170 181 177 163 155 146 140 139 138 147 138 137 138 133 130 132 128 122 109 102 105 103 83 54 21 297 248 234 237 234 222 261 241 220 198 254 346 279 220 139
128 114 99 100 269 185 156 153 136 132 131 136 134 132 130 131 133 126 135 131 113 105 110 98 71 47 46 354 314 257 251 261 273 292 252 202 202 195 187 196 284 224 203
124 118 124 157 264 286 155 147 144 138 137 134 131 124 120 122 120 119 123 118 117 109 100 73 36 10 355 308 286 306 299 284 341 338 307 222 191 199 198 189 236 255 226
111 111 120 146 174 225 242 143 125 109 139 140 122 112 112 120 127 122 122 129 113 109 116 34 343 327 319 296 289 304 285 284 349 3 337 41 252 255 216 231 202 232 256
109 109 115 104 93 132 136 142 137 144 222 144 119 100 85 86 90 99 136 110 121 128 7 350 332 305 295 282 297 290 270 45 125 27 16 17 163 281 250 259 244 274 243
146 120 104 113 108 103 106 118 150 168 131 103 98 101 96 104 106 88 157 212 121 53 25 355 319 299 305 287 267 301 249 173 169 175 135 120 96 265 254 277 252 257 228
161 150 135 131 131 118 119 127 122 122 109 90 97 114 123 153 104 224 233 65 56 52 76 340 291 286 297 291 301 277 278 245 220 201 165 142 101 55 303 350 267 235 227
167 155 153 154 139 120 128 113 107 108 100 91 145 136 150 100 258 303 359 42 69 127 158 220 312 291 282 285 275 292 285 246 225 227 201 200 155 59 14 327 318 235 230
165 159 161 144 153 130 121 98 93 101 84 219 212 152 258 234 257 294 126 65 331 263 274 77 337 323 301 299 306 311 309 224 213 238 285 218 128 51 55 321 305 201 211
162 173 164 152 170 155 152 142 157 150 211 243 264 327 294 236 242 182 175 99 328 348 292 336 312 298 323 335 313 331 4 55 173 310 45 307 260 213 239 292 301 176 201
178 187 168 177 175 179 171 173 191 168 200 252 287 309 227 176 191 197 211 283 315 335 304 308 359 274 359 341 310 321 20 60 42 215 240 302 212 206 168 196 171 181 204
168 181 192 198 182 192 195 167 206 221 244 260 278 272 229 132 141 188 257 287 345 328 319 329 58 44 342 315 308 293 351 357 298 284 301 265 232 133 150 175 176 171 231
187 177 185 198 193 187 225 206 212 283 283 270 252 257 248 212 199 188 235 297 346 355 335 29 101 157 181 303 291 295 330 5 35 265 279 259 206 166 151 184 184 175 224
180 189 186 190 181 177 185 223 144 228 254 222 227 220 205 191 170 178 224 287 292 304 343 16 9 334 296 3 306 318 352 3 346 308 298 306 225 202 154 160 176 209 234
171 185 196 188 192 152 159 165 167 231 187 205 212 187 187 203 172 201 238 265 139 51 28 35 3 343 31 357 357 337 19 0 28 312 280 23 37 224 168 137 185 221 240
184 188 192 195 189 184 163 185 163 181 202 161 177 217 203 203 197 203 243 289 134 173 44 26 29 307 11 356 82 225 18 339 45 57 68 78 108 179 172 167 203 215 208
193 193 196 189 195 187 170 145 104 82 66 122 206 234 196 202 213 219 224 227 236 150 78 89 304 317 328 9 47 134 64 344 330 338 357 33 138 216 246 205 217 192 166
208 195 192 186 182 188 166 183 183 178 170 216 180 174 173 182 201 224 227 224 231 291 294 315 241 230 179 324 196 103 87 124 146 333 320 26 26 16 170 174 204 188 180
197 196 197 187 181 180 172 194 195 186 192 174 190 183 178 187 204 214 212 213 207 227 260 262 273 196 199 136 307 77 90 117 188 197 295 331 44 49 20 156 219 223 190
177 182 185 188 202 182 180 184 198 201 191 179 196 202 218 222 241 216 212 197 200 219 241 267 263 251 217 204 200 109 134 200 221 180 272 342 299 330 351 321 259 194 183